STARLINK-2228, 48576

Orbit data source: Space-Track

STARLINK-2228, 48576 is a payload satellite owned by SpaceX/Seattle (US) in LEO that was launched on Sat, 15 May 2021 UTC via an FALCON 9 launch vehicle from the Air Force Eastern Test Range (AFETR). Payload-class satellites include a variety of spacecraft equipped with specific instruments for various scientific and technological missions. These include communications satellites like Starlink; space stations such as the ISS; scientific satellites like the Hubble; Earth observation satellites from companies like Planet Labs, Umbra, and HawkEye 360; GPS; miniature CubeSats for education and research; and military/defense satellites.

Loading next visibility...
Identifier
48576, 2021-041Z
Orbit
LEO
Country
Flag of USUS
Related business
Manufacturer
SpaceX/Seattle
Mission
Operational Commercial Communications
Bus & Motor
STARLINK, Unknown motor
Mass
260 kg wet, ~248 kg dry
Launch date (UTC)
2021-05-15 (5 years ago)
Launch vehicle
FALCON 9
Launch site
Air Force Eastern Test Range (AFETR)
Object type
Payload
Rocket body
Debris
Shape & HBR
Box + 1 Pan, 10.1 m
Radar Cross Section
13.562 m², Large (>1 m²)

Expand to show TLE details & history
Last TLE update: 3 days ago

TLE from 3 days ago
0 STARLINK-2228
1 48576U 21041Z   26170.76993535  .00001225  00000-0  51237-4 0  9993
2 48576  53.1605 346.1714 0001223  90.8225 269.2917 15.31705470281282
Epoch: 2026-06-19T18:28Z
TLE epoch observation values (Epoch: 2026-06-19T18:28:42.414Z)
Latitude
0.00003°
Longitude
161.00055°
Altitude
471.634 km
Speed
7.631 km/s
True Right ascension
23h 04m 41s
True Declination
0° 00' 00"
Sunlit
Object was in daylight at epoch
Visualization orbit readout
Latitude
Unknown
Longitude
Unknown
Altitude
Unknown
Speed
Unknown
Apparent Right ascension
Unknown
Apparent Declination
Unknown
Sunlit
N/A
Visualization observer readout
Local Sidereal Time
21:39:59
Azimuth
Unknown
Elevation
Unknown
Doppler factor
Unknown
Orbital elements
Apogee altitude
471.818 km
Perigee altitude
470.143 km
Semi-major axis
6,849.117 km
Eccentricity
0.00012
Inclination
53.1605°
RAAN
346.1714°
Arg. of periapsis
90.8225°
True anomaly
269.27769°
Mean anomaly
269.2917°
Eccentric anomaly
269.28469°
Mean motion
3.82905 °/min
Orbital period
94.02 mins
BSTAR
0.000051237
Loading maneuver chart data...
Computing Atmospheric mass density...
Loading historical data...
Loading historical data...
Loading historical data...
Loading historical data...
Loading historical data...
Loading historical data...
Loading historical data...

Documentation

Showing up to 5 results
|